Regional Weather Roundup
Issued by NWS

Home | Current Version | Previous Version | Graphics & Text | Print | Product List | Glossary Off
Versions: 1 2 3 4 5 6 7 8 9 10 11 12 13 14 15 16 17 18 19 20 21 22 23 24 25 26 27 28 29 30 31 32 33 34 35 36 37 38 39 40 41 42 43 44 45 46 47 48 49 50

000
ASUS43 KMKX 040100
RWRWI

WISCONSIN REGIONAL WEATHER ROUNDUP
NATIONAL WEATHER SERVICE MILWAUKEE/SULLIVAN WI
800 PM CDT SUN MAY 03 2015

NOTE: "FAIR" INDICATES FEW OR NO CLOUDS BELOW 12,000 FEET WITH NO
SIGNIFICANT WEATHER AND/OR OBSTRUCTIONS TO VISIBILITY.

WIZ001-002-006>008-014>016-023>028-040200-
NORTHWEST WISCONSIN

CITY           SKY/WX    TMP DP  RH WIND       PRES   REMARKS
SUPERIOR ARPT  PTCLDY    59  49  70 SW3       29.83F
ASHLAND        LGT RAIN  58  49  72 S5        29.86S
HAYWARD        CLOUDY    61  46  57 NE8       29.86S
SIREN          MOCLDY    64  43  47 NE9       29.85S
CUMBERLAND     LGT RAIN  61  41  48 N10       29.85R
RICE LAKE      CLOUDY    62  45  52 N14       29.87R
CHETEK         RAIN      60  56  84 N9        29.88R
LADYSMITH      TSTM      66  50  55 N10       29.89R
EAU CLAIRE     TSTM      59  55  87 N16G26    29.85R FOG
MENOMONIE      TSTM      57  56  97 N18G29    29.85R
NEW RICHMOND   LGT RAIN  62  51  66 NE5       29.83F
OSCEOLA        MOCLDY    66  46  48 NE8       29.87R
$$

WIZ003>005-009-010-017-018-040200-
NORTH CENTRAL WISCONSIN

CITY           SKY/WX    TMP DP  RH WIND       PRES   REMARKS
MANITOWISH WTR MOCLDY    63  49  60 N9        29.84R
ARBOR VITAE    CLOUDY    62  56  81 CALM      29.84R
WOODRUFF       CLOUDY    62  56  81 CALM      29.84R
RHINELANDER    LGT RAIN  58  54  86 N3        29.86R
EAGLE RIVER    CLOUDY    60  58  94 CALM      29.83R
LAND O LAKES   CLOUDY    62  60  94 CALM      29.84R
PHILLIPS       CLOUDY    65  52  62 CALM      29.85R
TOMAHAWK       LGT RAIN  63  52  67 N10G18    29.84R
MEDFORD        CLOUDY    71  53  53 CALM      29.81R THUNDER
MERRILL        PTCLDY    73  52  48 SW7       29.79R
$$

WIZ029-030-035-036-043>047-040200-
CENTRAL WISCONSIN

CITY           SKY/WX    TMP DP  RH WIND       PRES   REMARKS
WAUSAU         CLOUDY    74  52  46 SW7       29.78R
MOSINEE        NOT AVBL
MARSHFIELD     MOCLDY    71  53  52 SE6       29.79R
STEVENS POINT  PTCLDY    73  51  47 SW15      29.81R
WAUPACA        CLEAR     74  53  48 S13       29.80R
WAUTOMA        NOT AVBL
WISC RAPIDS    PTCLDY    73  51  46 S8        29.81R
CAMP DOUGLAS   NOT AVBL
$$

WIZ011>013-019>022-031-037>040-048>050-040200-
NORTHEAST WISCONSIN

CITY           SKY/WX    TMP DP  RH WIND       PRES   REMARKS
ANTIGO         PTCLDY    69  52  55 W6        29.80R
SHAWANO        CLEAR     77  51  40 S6        29.77S
OCONTO         CLEAR     73  55  51 SW9G16    29.77R
STURGEON BAY   CLEAR     64  50  59 SW10      29.81S
GREEN BAY      CLEAR     72  54  53 S17G23    29.80R
MANITOWOC      NOT AVBL
APPLETON       NOT AVBL
CLINTONVILLE   PTCLDY    73  50  43 S13G21    29.78S
OSHKOSH        CLEAR     68  52  56 S10G22    29.82S
$$

WIZ032>034-041-042-053>061-040200-
SOUTHWEST WISCONSIN

CITY           SKY/WX    TMP DP  RH WIND       PRES   REMARKS
LA CROSSE      CLOUDY    79  56  45 S9        29.76R HX  80
SPARTA         MOCLDY    75  53  47 S12       29.77S
VIROQUA        CLOUDY    72  56  58 S10       29.79F
BOSCOBEL       CLEAR     73  58  59 CALM      29.79F
PRAIRIE DU CHI PTCLDY    75  55  49 E8        29.77F
PLATTEVILLE    PTCLDY    69  59  71 SE12      29.83S
$$

WIZ056-057-062-063-064-067-068-040200-
SOUTH CENTRAL WISCONSIN

CITY           SKY/WX    TMP DP  RH WIND       PRES   REMARKS
REEDSBURG      CLEAR     69  57  66 S5        29.81S
BARABOO/DELLS  NOT AVBL
LONE ROCK      NOT AVBL
MINERAL POINT  CLEAR     68  57  68 SE10      29.84S
MADISON        PTCLDY    68  55  63 S12       29.84F
MIDDLETON      CLEAR     70  52  53 S12       29.84F
WATERTOWN      CLEAR     67  54  64 S10G17    29.85F
MONROE         CLEAR     63  59  88 SE10      29.86S
JANESVILLE     CLEAR     66  55  68 S12       29.86F
$$

WIZ051-052-058>065-066-070>072-040200-
SOUTHEAST WISCONSIN

CITY           SKY/WX    TMP DP  RH WIND       PRES   REMARKS
MILWAUKEE      MOCLDY    67  53  61 S14       29.88F
WAUKESHA       CLEAR     64  54  68 SW12G29   29.89F
MILWAUKEE/TIMM CLEAR     66  50  55 S13G21    29.88F
RACINE         CLOUDY    66  55  67 S12G21    29.91F
BURLINGTON     PTCLDY    62  56  79 S9        29.89F
KENOSHA        MOCLDY    63  58  83 S12       29.91F
FOND DU LAC    CLEAR     68  53  58 S17       29.83S
SHEBOYGAN      CLEAR     68  53  58 S16       29.84F
WEST BEND      CLEAR     66  50  55 S12       29.86F
JUNEAU         CLEAR     67  54  62 S13       29.86F
$$

LSZ147-162-040200-
LAKE SUPERIOR

STATION/POSITION TIME  TEMP    WIND        PRES    WAVE
                       AIR SEA DIR/SP/G            HT/PER
                 (UTC) (F)     (DEG/KT/KT) (MB)    (FT/S)
W MID LAKE BUOY  2350   52 36  310/ 19/ 23 1009.4S   1
DEVILS ISLAND    0000   52     280/ 10/ 11 1010.3R
PORT WING        0000   57     180/  3/  5 1010.8F
SAXON HARBOR     0000   60      60/  4/  6 1010.8R
$$

LMZ867-665-643>646-040200-
LAKE MICHIGAN

STATION/POSITION TIME  TEMP    WIND        PRES    WAVE
                       AIR SEA DIR/SP/G            HT/PER
                 (UTC) (F)     (DEG/KT/KT) (MB)    (FT/S)
CHAMBERS ISLAND  0000   71     160/  5/ 11 1008.1F
NORTHPORT PIER   0001   59     160/  7/ 21 1008.8F
KEWAUNEE LAKESHO 0000   51     180/ 13/ 14 1008.9F
SHEBOYGAN LAKESH 0000          200/ 20/ 25 1011.0F
PORT WASHINGTON  0000   72     200/  9/ 16 1012.2
ATWATER BUOY     0000   61     190/ 12/ 17 1013.7F
MILWAUKEE LAKESH 0000   67     210/ 15/ 20   N/A
KENOSHA   LAKESH 0000   63     210/ 14/ 22 1012.9F
$$

TC  - TEMPERATURE IN CELSIUS
VSB - VISIBILITY IN STATUTE MILES
WCI - WIND CHILL INDEX
HX  - HEAT INDEX



USA.gov is the U.S. government's official web portal to all federal, state and local government web resources and services.